Location: *
(50.5492°N, 7.7469°E)
Time: 23:18:27
(UTC+00:00)

IRS-1A Rocket - Pass Details

Date: 21 October 2019
Orbit: 852 x 931 km, 99.2° (Epoch: 22 November)

Event Time Altitude Azimuth Distance (km) Brightness Sun altitude
Exits shadow 17:46:34 - 142° (SE) 3,191 6.8 -13.5°
Reaches altitude 10° 17:48:26 10° 137° (SE) 2,479 6.2 -13.8°
Maximum altitude 17:53:40 48° 65° (ENE) 1,113 4.4 -14.6°
Drops below altitude 10° 17:58:57 10° 353° (N) 2,507 6.8 -15.5°
Sets 18:01:25 0° 348° (NNW) 3,455 7.6 -15.9°
